Location: Waco, TX
(31.5480°N, 97.1670°W)
Time: 22:16:30
(UTC-06:00)

ISS - Pass Details

Date: 14 February 2019
Orbit: 403 x 411 km, 51.6° (Epoch: 22 February)

Event Time Altitude Azimuth Distance (km) Brightness Sun altitude
Rises 08:30:20 0° 192° (SSW) 2,299 0.2 14.9°
Reaches altitude 10° 08:32:49 10° 173° (S) 1,444 -0.5 15.4°
Maximum altitude 08:35:07 18° 127° (SE) 1,060 0.7 15.9°
Drops below altitude 10° 08:37:26 10° 82° (E) 1,451 0.0 16.3°
Sets 08:39:56 0° 63° (ENE) 2,315 0.5 16.8°
